Location: Aalen
(48.8330°N, 10.1000°E)
Time: 13:25:38
(UTC+02:00)

SL-19 R/B - Visible Passes

Search period start: 17 August 2022 00:00
Search period end: 27 August 2022 00:00
Orbit: 355 x 778 km, 99.4° (Epoch: 16 August)

Date Brightness Start Highest point End Pass type
(mag) Time Alt. Az. Time Alt. Az. Time Alt. Az.
17 Aug 7.4 00:53:01 10° E 00:54:56 12° NE 00:56:46 10° NNE visible
17 Aug 4.9 02:28:57 70° E 02:29:09 72° ENE 02:33:41 10° NNW visible
17 Aug 6.6 04:05:01 17° W 04:05:01 17° W 04:07:23 10° NW visible
18 Aug 7.3 00:54:03 10° ENE 00:55:51 12° NE 00:57:36 10° NNE visible
18 Aug 4.8 02:30:03 71° ENE 02:30:06 71° ENE 02:34:34 10° NNW visible
18 Aug 6.6 04:06:07 16° W 04:06:07 16° W 04:08:14 10° NW visible
19 Aug 7.3 00:55:05 10° ENE 00:56:46 12° NE 00:58:23 10° NE visible
19 Aug 4.9 02:31:07 71° ENE 02:31:07 71° ENE 02:35:25 10° NNW visible
19 Aug 6.6 04:07:11 16° WNW 04:07:11 16° WNW 04:09:05 10° NW visible
20 Aug 7.3 00:56:07 10° ENE 00:57:39 12° NE 00:59:08 10° NE visible
20 Aug 4.9 02:32:11 69° NE 02:32:11 69° NE 02:36:16 10° NNW visible
20 Aug 6.6 04:08:15 15° WNW 04:08:15 15° WNW 04:09:53 10° NW visible
21 Aug 7.3 00:57:10 10° ENE 00:58:31 11° NE 00:59:51 10° NE visible
21 Aug 5.0 02:33:14 65° NNE 02:33:14 65° NNE 02:37:05 10° NNW visible
21 Aug 6.7 04:09:18 14° WNW 04:09:18 14° WNW 04:10:41 10° NW visible
22 Aug 7.3 00:58:12 10° ENE 00:59:22 11° NE 01:00:32 10° NE visible
22 Aug 5.0 02:34:16 61° NNE 02:34:16 61° NNE 02:37:53 10° NNW visible
22 Aug 6.7 04:10:20 14° WNW 04:10:20 14° WNW 04:11:27 10° WNW visible
23 Aug 7.3 00:59:15 10° ENE 01:00:12 11° NE 01:01:09 10° NE visible
23 Aug 5.1 02:35:17 56° NNE 02:35:17 56° NNE 02:38:40 10° NNW visible
23 Aug 6.7 04:11:21 13° WNW 04:11:21 13° WNW 04:12:13 10° WNW visible
24 Aug 7.3 01:00:22 10° ENE 01:01:01 10° NE 01:01:40 10° NE visible
24 Aug 5.3 02:36:16 51° N 02:36:16 51° N 02:39:26 10° NNW visible
24 Aug 6.8 04:12:20 12° WNW 04:12:20 12° WNW 04:12:56 10° WNW visible
25 Aug 5.4 02:37:15 46° N 02:37:15 46° N 02:40:09 10° N visible
25 Aug 6.8 04:13:19 11° WNW 04:13:19 11° WNW 04:13:39 10° WNW visible
26 Aug 5.6 02:38:14 41° N 02:38:14 41° N 02:40:53 10° N visible
26 Aug 6.9 04:14:17 10° WNW 04:14:17 10° WNW 04:14:21 10° WNW visible
